Theta_e
317 317 317 316 316 316 316 316 316 316 316 317 317 316 316 316 316 315 309 316 317 318 319 312 311 308 307 307 309 309 300 298 300 301 302 306 306 311 314 312 315 319 321 336 349
318 317 318 318 318 317 317 317 317 317 316 316 316 316 315 315 313 310 320 321 320 320 314 309 305 305 303 304 306 304 300 301 304 305 303 306 306 307 308 310 311 315 328 338 347
317 317 318 318 318 318 317 317 317 317 316 316 316 315 315 315 309 309 321 325 321 322 312 310 309 304 301 304 305 303 299 304 303 305 305 304 304 307 306 305 311 313 319 330 336
317 317 317 317 317 317 317 316 317 317 316 316 315 315 315 314 301 319 324 323 323 318 310 307 306 302 301 299 304 299 303 303 303 304 304 303 305 304 306 307 312 314 317 317 318
317 317 317 317 316 317 316 316 316 316 316 315 314 314 313 307 308 322 324 322 320 313 307 306 304 304 300 301 302 299 301 303 304 304 304 305 303 303 304 308 310 312 313 313 315
317 317 317 317 317 316 317 316 315 315 315 314 315 314 309 301 315 314 317 318 316 313 308 308 306 307 302 301 301 302 302 302 303 304 305 302 302 303 304 308 308 309 310 312 315
317 317 317 317 316 316 316 315 314 315 314 315 315 312 305 307 315 319 317 317 317 313 308 310 308 304 304 300 303 302 299 303 304 305 303 305 300 301 306 307 306 308 310 312 314
316 316 316 316 316 315 315 315 314 315 316 316 316 310 303 316 318 315 320 319 319 318 312 311 308 305 302 304 303 302 302 298 303 305 306 303 298 306 309 307 305 307 308 310 313
316 315 315 315 315 315 314 314 314 315 317 314 311 308 303 315 310 314 316 314 316 313 311 310 307 302 300 298 298 301 296 297 299 305 303 302 301 307 309 308 307 308 309 310 313
315 314 314 315 314 314 313 314 315 314 312 313 310 301 308 306 311 313 315 317 310 308 305 304 303 298 298 296 290 296 296 298 297 303 302 302 302 306 310 309 309 310 311 311 312
314 314 314 314 314 313 312 312 310 307 307 306 307 306 307 312 315 310 312 313 310 306 299 302 296 293 296 298 300 299 298 297 301 304 302 302 303 306 309 310 309 310 311 312 313
313 313 314 314 314 313 311 308 309 311 304 312 310 309 311 312 307 308 312 307 305 299 301 297 293 298 299 299 299 299 298 298 301 303 302 302 302 306 308 309 310 311 312 313 314
312 312 313 313 312 311 310 309 314 314 304 307 309 308 309 311 306 305 309 308 303 300 299 296 298 301 299 299 298 299 297 298 298 302 303 302 300 303 307 308 310 312 312 314 315
311 311 311 311 309 313 307 313 315 315 300 303 304 308 310 310 305 312 310 308 304 299 300 299 303 300 300 298 300 296 301 300 299 298 294 302 293 301 304 305 307 310 311 314 315
311 311 311 310 306 306 309 317 317 313 289 305 306 315 311 306 308 307 310 307 301 300 301 297 299 299 298 299 302 298 303 301 301 299 298 298 295 300 303 302 305 308 311 315 317
311 311 311 309 310 311 314 314 313 298 288 301 307 305 304 306 305 308 305 307 306 302 303 300 305 303 301 302 303 303 300 300 300 298 292 297 296 297 301 303 305 309 313 315 317
310 310 309 310 306 315 314 309 298 291 302 300 301 304 303 301 302 302 299 298 296 292 295 299 299 303 304 300 304 301 299 291 290 290 290 298 296 298 304 305 308 310 313 316 319
308 307 311 312 314 315 311 304 290 296 298 305 303 302 299 301 301 301 300 297 301 300 296 292 291 300 303 301 298 299 299 292 286 288 292 297 292 300 306 311 312 312 314 317 319
306 310 310 314 315 314 307 296 295 298 302 300 301 291 294 300 299 300 300 299 301 303 296 294 293 302 303 304 303 299 295 302 295 296 292 296 299 303 308 309 310 311 313 316 319
306 307 310 316 316 310 303 296 300 304 306 303 296 296 289 296 298 299 299 302 301 305 306 301 292 301 304 306 305 302 304 295 296 288 287 293 294 296 303 305 308 309 311 314 317
306 302 313 316 315 305 298 299 302 306 307 301 299 295 294 294 299 297 299 303 305 305 306 303 300 298 302 300 299 299 299 300 300 297 290 289 293 306 305 307 308 310 311 313 314
302 296 313 314 303 305 301 303 302 304 308 304 304 301 298 294 293 294 296 300 304 307 302 305 300 295 297 304 305 304 302 302 295 293 297 296 295 309 309 310 311 310 312 313 314
296 298 313 308 299 301 304 303 304 303 303 302 300 302 302 298 293 298 299 302 304 305 303 306 300 293 294 300 304 300 302 303 303 301 295 292 296 309 310 310 311 311 312 313 315
298 295 306 307 307 302 301 301 299 304 303 303 301 301 299 297 298 296 297 299 305 305 303 305 302 297 289 293 301 298 300 302 301 297 296 296 299 303 305 306 309 310 312 314 314
299 299 299 295 299 299 301 301 298 297 302 303 299 299 298 295 295 294 298 299 302 302 303 304 296 298 298 297 297 297 297 298 297 299 295 296 296 300 302 303 304 306 307 308 310
297 298 300 297 301 299 299 299 298 299 299 298 298 299 299 296 296 293 296 298 298 302 302 302 296 297 295 295 295 294 296 297 297 297 296 296 295 302 303 306 306 307 307 307 308
303 305 300 296 297 296 296 298 298 301 300 301 301 299 297 298 300 301 302 300 300 299 296 296 296 292 287 291 291 288 293 294 295 297 295 292 298 304 302 303 303 304 306 307 307
Wind_Speed
14 13 13 12 11 12 13 13 13 12 11 10 11 12 13 14 14 17 15 6 5 6 11 10 13 13 10 9 7 6 10 13 17 15 14 4 12 13 15 11 13 12 7 11 1
13 13 13 13 13 13 12 12 14 14 13 12 12 12 12 12 18 22 14 9 12 11 13 15 15 16 11 13 8 13 12 15 8 9 11 14 13 12 15 14 18 15 7 3 6
13 13 13 13 13 12 12 12 12 13 13 13 13 13 13 15 13 5 5 18 15 17 14 10 13 14 12 10 12 11 15 9 9 13 13 16 17 15 16 20 17 15 9 4 4
14 13 13 14 14 14 13 13 13 13 12 12 12 12 11 8 8 8 6 16 17 17 13 13 15 14 11 12 12 10 12 13 11 10 14 18 17 18 18 21 20 17 8 13 12
13 14 15 14 14 14 13 13 14 13 12 11 10 11 10 10 17 9 12 13 14 16 17 16 14 13 13 11 10 16 13 11 14 16 17 18 20 20 23 21 21 22 18 20 19
12 14 14 14 14 15 14 13 12 13 13 13 11 8 9 17 3 5 10 14 13 17 16 15 9 10 6 10 14 6 10 13 14 16 15 18 19 19 15 10 20 26 27 24 22
11 12 13 14 14 15 15 14 14 16 19 17 11 9 11 22 1 4 12 16 14 16 12 13 7 11 6 7 8 9 12 14 16 18 15 8 16 24 25 23 22 23 21 22 22
13 13 14 15 16 16 16 16 16 19 18 11 11 9 11 6 12 15 8 11 10 11 9 9 8 11 9 1 8 13 11 12 6 7 13 7 13 15 13 18 22 24 21 21 23
14 14 14 17 17 17 17 18 19 16 10 4 8 7 10 8 13 18 17 12 14 12 8 11 10 8 7 13 12 11 10 8 6 3 3 11 13 10 5 10 15 19 19 18 19
17 16 16 16 18 17 17 20 17 9 5 6 1 5 9 6 9 12 20 14 14 15 12 11 10 10 11 12 13 13 13 9 8 8 5 8 17 17 13 11 14 16 16 16 18
17 16 17 18 18 17 17 8 7 8 10 12 10 8 3 2 8 13 23 21 15 18 14 16 13 17 19 17 15 4 8 10 11 8 10 14 12 15 13 9 13 15 14 14 16
17 18 18 19 19 18 9 6 6 7 14 19 23 21 19 7 8 12 25 16 19 18 13 10 17 14 10 13 13 11 11 12 12 6 5 9 15 14 10 8 6 9 10 11 15
18 18 19 19 21 10 7 13 11 5 10 8 11 15 15 14 9 19 27 19 20 19 16 13 2 13 14 13 12 12 13 12 13 11 13 15 16 15 7 6 3 6 5 5 11
18 17 17 18 14 6 14 5 7 6 8 9 8 7 11 11 10 22 26 19 14 18 17 14 10 11 17 15 13 13 12 13 14 14 11 5 11 5 1 6 5 1 5 6 5
19 18 17 7 12 7 6 6 5 7 8 7 8 7 13 13 10 22 26 20 16 14 12 12 12 17 14 16 13 13 8 10 12 13 14 15 10 11 3 11 7 3 3 7 7
20 20 18 13 10 14 9 4 6 9 8 5 5 7 10 16 5 16 19 19 15 12 17 15 12 13 17 15 10 3 7 9 9 12 14 16 16 12 9 6 3 1 5 7 8
22 23 19 12 7 1 8 6 8 9 3 2 3 6 9 14 14 9 16 19 14 16 16 13 13 12 8 11 14 9 9 8 11 11 11 6 8 11 6 3 3 5 6 7 7
25 28 7 9 12 6 9 8 10 5 6 4 4 3 8 11 17 21 25 21 23 19 11 13 14 18 15 18 13 16 14 11 10 10 10 8 8 5 5 3 1 2 4 5 8
29 8 5 4 10 11 8 11 7 3 4 1 5 6 5 5 7 17 17 23 20 18 11 12 13 6 8 17 19 16 9 14 15 9 10 6 10 7 8 7 4 3 4 7 9
11 8 3 5 10 11 9 15 5 7 9 5 5 5 2 7 12 14 15 4 12 16 19 9 4 12 11 7 7 15 5 11 11 17 17 10 8 7 11 8 4 4 5 6 7
7 7 8 7 10 10 10 12 8 12 4 6 5 6 3 7 9 1 7 6 1 9 11 11 10 8 9 12 10 9 11 11 9 6 10 11 2 11 8 3 3 3 5 5 7
6 5 6 7 8 9 12 7 1 10 4 3 11 3 6 6 3 8 4 6 4 5 11 4 5 7 11 5 3 6 9 7 9 13 8 10 6 5 4 2 2 4 4 5 4
8 5 4 3 6 9 11 9 9 6 5 6 7 9 4 8 5 10 6 2 3 3 5 7 6 8 6 12 9 10 12 9 7 5 12 10 4 6 7 3 2 2 4 0 2
5 5 3 6 3 10 12 12 7 3 3 2 4 7 7 8 5 7 7 3 2 5 5 3 6 7 1 4 1 11 10 13 11 10 12 12 12 11 6 3 4 4 6 8 5
2 3 2 4 3 10 9 11 8 4 2 4 6 13 5 4 5 5 4 8 4 3 2 2 6 5 1 1 2 3 6 9 10 10 11 10 12 10 10 13 14 15 13 14 13
4 6 6 12 8 9 6 9 9 4 3 8 7 7 4 2 2 0 2 3 1 3 2 1 4 6 11 3 8 13 14 15 16 15 16 15 16 14 9 10 11 10 12 12 12
2 4 4 8 6 8 3 10 7 4 2 6 5 7 6 6 4 4 5 4 3 1 4 4 5 6 9 2 6 12 15 18 16 13 11 12 4 8 6 6 5 5 6 7 8
Wind_Direction
346 344 341 337 335 332 329 327 326 324 322 318 317 322 324 312 296 264 252 250 168 212 205 150 173 191 208 211 223 247 244 243 241 242 255 210 253 254 267 266 249 260 299 349 71
346 344 342 339 337 335 331 328 327 325 322 320 321 323 319 310 288 267 246 219 213 197 182 169 167 175 192 205 201 217 232 246 263 280 260 271 257 267 270 253 240 237 161 90 129
343 341 338 336 332 330 328 325 322 321 321 322 322 320 316 301 280 242 124 201 203 191 206 202 169 182 197 194 200 213 250 256 230 247 259 267 266 259 253 254 245 246 196 191 205
340 338 335 333 329 325 320 315 313 314 312 313 314 311 313 293 280 45 38 158 176 195 195 183 180 193 207 207 211 242 228 254 252 256 253 259 266 263 256 258 270 255 294 287 264
333 332 330 327 325 318 310 309 308 303 297 304 297 295 277 241 249 116 123 154 177 187 193 187 190 207 218 208 192 233 250 249 252 257 255 265 266 269 262 264 269 273 275 268 269
323 322 321 320 320 318 311 305 301 295 288 287 274 274 250 255 341 203 192 169 188 193 204 206 210 213 243 218 218 166 240 252 247 251 252 253 264 260 259 250 246 251 250 251 256
318 314 311 314 315 313 312 306 302 296 295 282 244 231 238 240 285 210 199 199 201 206 204 209 219 195 194 197 221 228 248 240 232 238 238 262 253 251 253 248 243 252 255 252 252
318 315 314 312 314 314 313 303 302 301 297 277 208 215 248 259 245 241 193 186 197 206 232 189 206 224 239 63 201 222 228 243 145 216 215 209 284 284 254 225 233 246 251 248 248
320 314 312 315 316 314 307 300 300 303 302 198 176 220 255 130 219 225 208 183 166 179 179 169 188 210 191 224 210 201 241 197 235 68 144 211 287 307 297 247 229 235 245 242 245
325 322 318 314 313 310 307 295 296 280 150 166 300 213 238 224 186 198 193 172 163 154 145 174 193 207 212 204 220 214 212 213 236 140 214 244 264 277 275 242 233 236 244 236 235
325 322 317 311 310 311 314 299 200 178 209 219 202 248 281 325 146 174 177 172 166 181 185 186 199 207 204 211 241 263 252 251 259 261 273 275 274 287 287 255 242 234 243 228 227
324 323 319 311 307 312 284 247 330 335 289 235 245 234 264 296 235 166 174 176 175 192 182 176 224 205 211 206 230 239 252 253 267 270 258 266 293 283 267 266 269 231 222 221 213
326 324 320 317 307 291 258 277 301 298 265 286 223 236 231 200 229 167 185 196 190 199 191 219 195 186 200 197 219 229 249 259 268 269 279 259 267 251 212 232 259 276 263 216 215
314 312 317 324 282 343 288 323 248 233 272 158 199 205 180 203 221 175 199 194 195 202 193 227 197 192 196 212 216 243 229 248 268 266 260 181 274 141 226 279 206 60 23 8 264
305 308 308 314 293 262 352 332 122 215 282 103 135 127 153 200 114 168 186 203 201 203 198 206 213 209 211 210 219 254 254 258 254 252 259 243 244 267 154 240 184 168 8 12 354
305 305 306 288 223 250 274 291 238 234 245 140 126 186 176 206 221 142 184 214 225 211 207 217 208 218 221 214 222 170 240 229 252 251 239 241 244 248 222 221 145 115 10 12 355
306 302 292 269 247 273 192 216 229 246 72 142 138 331 252 187 177 175 178 201 204 208 210 215 214 216 236 199 199 213 235 225 214 217 242 222 228 247 69 109 337 337 350 8 0
308 303 262 249 217 215 179 216 243 275 271 72 45 262 300 197 202 188 191 197 209 205 206 214 207 214 208 225 230 210 227 249 236 238 230 141 226 224 95 113 91 24 6 8 20
309 301 266 195 205 207 218 219 259 284 356 279 101 74 274 186 216 213 198 204 193 204 216 213 215 150 199 217 225 218 227 249 279 268 286 260 165 197 168 163 158 98 66 45 39
314 306 255 123 170 187 228 249 254 260 329 261 273 134 303 264 232 205 203 213 194 205 217 238 196 214 146 192 204 244 250 205 225 255 245 230 223 275 171 175 149 122 77 66 59
288 292 64 148 184 206 234 236 254 270 294 288 238 144 132 347 341 310 199 123 56 168 215 215 247 182 187 208 199 181 223 234 295 276 254 262 303 25 60 105 163 121 99 83 74
312 287 84 161 228 219 242 220 268 270 143 189 335 186 172 136 320 22 324 26 1 249 193 210 202 269 236 41 276 276 283 280 221 247 264 292 273 86 82 78 189 151 137 108 84
322 280 188 186 260 242 259 249 237 272 251 173 159 293 170 171 170 198 190 181 312 275 181 182 202 223 218 208 210 237 212 255 258 257 237 241 248 107 101 125 155 240 140 275 330
292 295 151 210 286 297 295 271 236 222 150 178 141 269 173 180 178 173 157 157 166 102 45 265 213 230 287 353 194 211 224 232 239 249 256 250 250 159 162 226 251 254 266 259 271
259 39 51 317 284 317 296 286 280 201 106 167 170 229 231 218 191 174 163 150 142 120 96 283 255 248 139 319 325 302 223 209 238 255 262 276 288 299 304 298 290 293 286 274 269
316 333 334 285 276 293 276 265 277 214 245 196 239 168 169 231 355 0 208 219 110 150 168 145 224 270 259 255 270 266 257 253 255 261 266 269 274 271 304 318 300 308 300 277 266
336 252 274 292 277 288 327 328 329 288 148 309 215 171 139 95 71 41 57 68 74 247 162 208 226 231 256 86 281 258 245 240 249 250 267 259 341 4 333 1 347 10 17 36 59